Location: Peterborough
(44.3091°N, 78.3197°W)
Time: 03:58:20
(UTC-04:00)

Tiros 1 - Pass Details

Date: 04 April 2023
Orbit: 627 x 661 km, 48.4° (Epoch: 09 June)

Event Time Altitude Azimuth Distance (km) Brightness Sun altitude
Rises 06:53:52 0° 290° (WNW) 2,988 10.0 0.0°
Reaches altitude 10° 06:56:14 10° 293° (WNW) 2,077 9.2 0.4°
Maximum altitude 07:01:01 67° 16° (NNE) 715 7.6 1.2°
Drops below altitude 10° 07:05:47 10° 100° (E) 2,072 11.6 2.1°
Sets 07:08:09 0° 103° (ESE) 2,981 12.3 2.5°
